Precipitable_Water
0.82 0.80 0.80 0.78 0.77 0.74 0.72 0.69 0.66 0.66 0.64 0.62 0.59 0.57 0.57 0.58 0.62 0.70 0.75 0.77 0.74 0.71 0.68 0.65 0.62 0.55 0.35 0.27 0.25 0.30 0.35 0.37 0.43 0.58 0.53 0.47 0.39 0.35 0.30 0.36 0.41 0.36 0.42 0.42 0.43 0.42 0.39
0.83 0.80 0.79 0.80 0.78 0.75 0.72 0.70 0.68 0.66 0.64 0.62 0.60 0.57 0.57 0.58 0.59 0.65 0.71 0.73 0.71 0.67 0.55 0.45 0.41 0.35 0.28 0.21 0.29 0.28 0.28 0.29 0.38 0.45 0.50 0.52 0.44 0.47 0.39 0.37 0.35 0.40 0.37 0.36 0.36 0.35 0.34
0.81 0.80 0.79 0.80 0.77 0.74 0.73 0.70 0.69 0.67 0.66 0.63 0.59 0.56 0.56 0.58 0.58 0.63 0.66 0.61 0.56 0.52 0.56 0.52 0.46 0.32 0.23 0.22 0.28 0.25 0.24 0.23 0.33 0.38 0.39 0.50 0.53 0.40 0.41 0.33 0.42 0.40 0.29 0.32 0.29 0.30 0.26
0.80 0.81 0.79 0.79 0.76 0.74 0.73 0.71 0.70 0.69 0.66 0.64 0.59 0.57 0.57 0.57 0.55 0.63 0.64 0.60 0.61 0.60 0.56 0.48 0.35 0.27 0.19 0.26 0.26 0.22 0.24 0.22 0.33 0.40 0.36 0.39 0.38 0.31 0.30 0.36 0.28 0.25 0.25 0.17 0.21 0.20 0.22
0.82 0.81 0.79 0.80 0.78 0.75 0.75 0.73 0.71 0.69 0.67 0.64 0.61 0.57 0.57 0.54 0.55 0.62 0.61 0.51 0.46 0.45 0.41 0.37 0.28 0.23 0.18 0.23 0.19 0.21 0.25 0.24 0.32 0.33 0.33 0.37 0.30 0.21 0.23 0.22 0.16 0.16 0.11 0.10 0.09 0.14 0.11
0.79 0.82 0.79 0.79 0.77 0.76 0.76 0.74 0.73 0.71 0.67 0.63 0.62 0.58 0.56 0.51 0.54 0.57 0.50 0.42 0.39 0.37 0.31 0.29 0.26 0.20 0.19 0.17 0.18 0.19 0.25 0.28 0.31 0.31 0.27 0.27 0.19 0.13 0.11 0.10 0.06 0.07 0.06 0.08 0.07 0.10 0.10
0.79 0.85 0.83 0.80 0.78 0.76 0.77 0.76 0.74 0.72 0.68 0.63 0.62 0.59 0.56 0.50 0.54 0.50 0.45 0.39 0.29 0.24 0.27 0.24 0.23 0.21 0.19 0.20 0.19 0.18 0.22 0.25 0.27 0.22 0.13 0.15 0.11 0.09 0.10 0.11 0.10 0.10 0.08 0.07 0.09 0.12 0.10
0.83 0.85 0.87 0.87 0.82 0.79 0.79 0.79 0.77 0.74 0.71 0.65 0.63 0.59 0.56 0.51 0.48 0.51 0.46 0.34 0.29 0.29 0.23 0.28 0.26 0.24 0.23 0.20 0.14 0.16 0.20 0.17 0.17 0.13 0.14 0.13 0.11 0.12 0.12 0.11 0.09 0.09 0.08 0.08 0.09 0.10 0.09
1.00 0.85 0.90 0.88 0.87 0.82 0.80 0.79 0.78 0.76 0.71 0.68 0.64 0.59 0.59 0.55 0.45 0.43 0.42 0.38 0.41 0.36 0.24 0.26 0.27 0.24 0.21 0.19 0.17 0.16 0.17 0.15 0.13 0.12 0.13 0.12 0.14 0.15 0.10 0.09 0.08 0.08 0.08 0.08 0.07 0.10 0.11
1.13 0.94 0.89 0.90 0.91 0.87 0.82 0.80 0.80 0.77 0.73 0.70 0.67 0.62 0.60 0.57 0.41 0.43 0.38 0.44 0.47 0.42 0.23 0.25 0.25 0.24 0.22 0.21 0.17 0.23 0.21 0.15 0.14 0.13 0.13 0.13 0.15 0.11 0.10 0.09 0.10 0.07 0.10 0.09 0.08 0.07 0.05
1.23 1.06 0.90 0.87 0.89 0.87 0.84 0.81 0.80 0.77 0.74 0.72 0.71 0.65 0.57 0.53 0.43 0.39 0.45 0.49 0.53 0.41 0.18 0.27 0.24 0.28 0.24 0.20 0.20 0.20 0.24 0.18 0.14 0.14 0.13 0.12 0.11 0.10 0.09 0.10 0.11 0.08 0.10 0.10 0.10 0.08 0.08
1.28 1.16 1.02 0.92 0.87 0.86 0.85 0.83 0.82 0.81 0.75 0.72 0.72 0.68 0.60 0.51 0.54 0.53 0.57 0.55 0.48 0.26 0.20 0.24 0.24 0.22 0.20 0.20 0.19 0.20 0.18 0.20 0.18 0.14 0.14 0.13 0.15 0.12 0.10 0.12 0.12 0.13 0.10 0.11 0.10 0.09 0.06
1.28 1.23 1.12 1.00 0.90 0.86 0.82 0.84 0.79 0.84 0.79 0.77 0.76 0.69 0.62 0.57 0.47 0.62 0.61 0.46 0.26 0.23 0.28 0.24 0.22 0.22 0.20 0.17 0.17 0.17 0.16 0.15 0.13 0.11 0.11 0.13 0.13 0.13 0.13 0.10 0.13 0.12 0.07 0.05 0.05 0.05 0.04
1.22 1.20 1.12 1.07 0.93 0.89 0.84 0.81 0.87 0.89 0.86 0.74 0.74 0.70 0.65 0.60 0.60 0.66 0.53 0.34 0.25 0.27 0.25 0.27 0.23 0.22 0.18 0.19 0.18 0.18 0.17 0.14 0.15 0.14 0.11 0.09 0.10 0.12 0.14 0.11 0.10 0.12 0.10 0.05 0.04 0.04 0.05
1.22 1.18 1.12 1.05 0.94 0.86 0.82 0.81 0.86 0.89 0.84 0.77 0.75 0.69 0.62 0.63 0.62 0.63 0.41 0.28 0.26 0.28 0.28 0.24 0.23 0.19 0.19 0.20 0.18 0.18 0.18 0.16 0.16 0.15 0.10 0.10 0.09 0.14 0.15 0.14 0.13 0.12 0.09 0.12 0.08 0.09 0.07
1.23 1.26 1.19 1.11 0.99 0.91 0.85 0.80 0.89 0.92 0.86 0.80 0.70 0.69 0.64 0.69 0.64 0.55 0.37 0.31 0.30 0.33 0.29 0.25 0.19 0.20 0.18 0.19 0.17 0.17 0.17 0.20 0.16 0.16 0.15 0.12 0.09 0.13 0.15 0.15 0.14 0.12 0.12 0.08 0.08 0.04 0.04
1.21 1.26 1.19 1.16 1.09 0.96 0.87 0.80 0.86 0.86 0.83 0.77 0.70 0.63 0.64 0.69 0.60 0.46 0.35 0.34 0.36 0.35 0.31 0.24 0.22 0.21 0.20 0.19 0.18 0.17 0.17 0.20 0.20 0.17 0.17 0.14 0.11 0.12 0.14 0.11 0.10 0.10 0.09 0.09 0.08 0.07 0.05
1.11 1.14 1.15 1.15 1.15 0.99 0.87 0.89 0.87 0.83 0.84 0.77 0.66 0.57 0.67 0.64 0.50 0.47 0.43 0.44 0.47 0.37 0.34 0.28 0.26 0.24 0.22 0.20 0.18 0.17 0.17 0.18 0.21 0.18 0.13 0.16 0.12 0.10 0.11 0.13 0.13 0.12 0.10 0.09 0.06 0.05 0.06
1.11 1.15 1.20 1.22 1.12 1.05 0.93 0.87 0.88 0.82 0.80 0.69 0.59 0.55 0.64 0.62 0.47 0.46 0.49 0.46 0.44 0.40 0.33 0.30 0.26 0.26 0.25 0.20 0.17 0.19 0.19 0.21 0.20 0.17 0.14 0.16 0.12 0.09 0.09 0.11 0.13 0.10 0.10 0.09 0.08 0.07 0.05
0.98 1.04 1.08 1.10 1.08 1.03 0.96 0.91 0.91 0.85 0.86 0.70 0.61 0.52 0.52 0.51 0.49 0.46 0.47 0.45 0.40 0.40 0.34 0.34 0.29 0.27 0.23 0.20 0.19 0.18 0.19 0.20 0.20 0.18 0.19 0.17 0.12 0.09 0.07 0.07 0.09 0.08 0.09 0.09 0.08 0.05 0.05
0.92 1.03 1.12 1.04 1.04 0.98 0.95 0.96 0.93 0.86 0.87 0.76 0.65 0.58 0.55 0.49 0.46 0.45 0.43 0.41 0.38 0.38 0.39 0.35 0.30 0.26 0.22 0.19 0.18 0.18 0.19 0.19 0.19 0.21 0.17 0.15 0.11 0.11 0.10 0.11 0.10 0.09 0.08 0.08 0.07 0.06 0.04
0.74 0.91 0.99 0.99 1.03 0.93 0.91 0.98 0.97 0.89 0.91 0.77 0.64 0.58 0.57 0.53 0.56 0.51 0.48 0.44 0.41 0.41 0.37 0.33 0.29 0.25 0.23 0.19 0.17 0.16 0.18 0.18 0.15 0.16 0.15 0.14 0.11 0.10 0.08 0.09 0.09 0.07 0.08 0.08 0.07 0.06 0.06
0.63 0.67 0.80 0.89 0.88 0.89 0.94 0.91 0.90 0.83 0.83 0.73 0.73 0.68 0.59 0.54 0.51 0.47 0.43 0.39 0.41 0.37 0.37 0.35 0.29 0.24 0.22 0.20 0.21 0.20 0.20 0.19 0.17 0.14 0.13 0.12 0.11 0.08 0.07 0.08 0.08 0.06 0.06 0.06 0.06 0.07 0.06
0.58 0.64 0.70 0.77 0.80 0.85 0.91 0.83 0.87 0.83 0.85 0.73 0.70 0.61 0.51 0.44 0.49 0.46 0.42 0.41 0.39 0.36 0.32 0.35 0.30 0.25 0.26 0.26 0.24 0.22 0.21 0.18 0.16 0.15 0.15 0.12 0.09 0.08 0.07 0.08 0.05 0.06 0.08 0.08 0.06 0.06 0.07
0.55 0.66 0.69 0.71 0.76 0.84 0.80 0.84 0.81 0.80 0.79 0.68 0.69 0.58 0.53 0.43 0.46 0.46 0.42 0.42 0.41 0.41 0.37 0.33 0.29 0.29 0.28 0.22 0.19 0.18 0.18 0.15 0.16 0.16 0.13 0.12 0.10 0.08 0.07 0.07 0.06 0.07 0.06 0.06 0.06 0.05 0.06
0.47 0.58 0.71 0.72 0.73 0.72 0.73 0.77 0.72 0.76 0.77 0.70 0.66 0.63 0.58 0.45 0.45 0.48 0.43 0.43 0.40 0.36 0.35 0.31 0.30 0.29 0.25 0.22 0.19 0.17 0.13 0.13 0.13 0.14 0.15 0.13 0.11 0.08 0.07 0.06 0.05 0.06 0.07 0.08 0.07 0.04 0.05
0.51 0.51 0.68 0.75 0.74 0.73 0.69 0.67 0.67 0.68 0.72 0.68 0.62 0.64 0.57 0.45 0.48 0.45 0.40 0.39 0.37 0.37 0.31 0.30 0.29 0.26 0.26 0.21 0.17 0.17 0.14 0.14 0.12 0.11 0.11 0.11 0.11 0.09 0.07 0.07 0.06 0.07 0.08 0.07 0.05 0.04 0.05
0.62 0.72 0.69 0.77 0.81 0.80 0.78 0.78 0.75 0.72 0.69 0.64 0.57 0.65 0.55 0.46 0.45 0.43 0.42 0.36 0.37 0.32 0.26 0.27 0.24 0.23 0.24 0.19 0.18 0.17 0.14 0.14 0.12 0.12 0.10 0.09 0.09 0.09 0.09 0.07 0.05 0.08 0.08 0.06 0.06 0.06 0.05
0.66 0.74 0.74 0.78 0.83 0.82 0.82 0.80 0.77 0.74 0.70 0.68 0.53 0.57 0.57 0.45 0.42 0.46 0.43 0.42 0.41 0.36 0.30 0.29 0.24 0.26 0.23 0.18 0.19 0.17 0.14 0.13 0.12 0.10 0.11 0.09 0.09 0.09 0.08 0.07 0.08 0.09 0.08 0.07 0.07 0.06 0.06
Wind_Speed
9 9 9 9 9 9 10 11 12 13 13 14 14 15 15 15 14 14 13 11 10 7 4 2 4 5 5 5 6 11 11 7 5 5 5 5 6 6 6 8 8 9 9 9 10 10 12
9 10 9 9 9 9 10 11 12 13 14 14 14 14 15 14 14 13 11 9 8 6 5 5 6 5 5 5 9 10 8 5 4 4 4 4 5 5 5 7 8 8 8 10 12 11 15
10 10 10 9 9 10 10 11 12 13 14 14 14 15 14 14 13 11 10 8 7 6 6 7 6 5 6 5 8 9 5 4 4 4 3 5 5 7 7 7 10 9 11 12 16 17 17
11 11 11 10 10 10 11 11 12 13 14 15 15 14 14 13 13 11 9 8 8 8 7 7 7 5 4 7 8 8 5 4 3 3 3 4 4 5 8 9 10 11 12 14 16 18 18
12 12 12 11 11 11 11 12 13 14 15 15 15 14 14 14 12 11 9 9 7 7 7 8 7 5 6 8 8 8 5 3 3 4 5 5 6 7 9 9 11 13 13 15 18 18 20
13 13 13 12 12 12 13 13 13 14 15 16 16 16 15 14 12 10 9 8 8 7 9 8 6 6 7 8 8 8 5 4 4 6 7 8 8 8 9 10 11 12 14 17 19 20 21
15 14 14 14 14 14 13 13 14 15 15 16 16 16 16 13 12 10 10 9 10 10 10 7 7 5 7 8 6 8 7 5 6 7 8 9 7 7 9 11 11 12 15 17 21 21 24
17 16 16 15 15 14 14 14 15 15 16 16 16 16 16 12 13 12 11 10 10 8 8 8 6 7 7 6 7 11 7 7 8 7 8 9 7 9 10 13 13 15 16 19 22 22 26
19 18 17 17 16 16 16 15 16 16 17 17 16 16 15 13 13 13 12 11 10 9 9 10 9 8 7 7 8 11 9 7 7 9 10 10 9 11 13 15 15 17 18 21 23 26 26
20 20 20 19 18 17 17 17 17 17 17 17 16 16 15 15 14 13 12 10 9 10 10 10 9 8 7 8 8 10 9 9 9 7 9 10 13 13 14 17 19 18 20 23 26 26 25
22 21 21 20 19 19 18 18 19 19 19 18 17 16 16 16 14 14 12 10 10 11 11 8 7 7 8 8 10 12 11 10 9 11 12 13 13 14 16 19 20 20 24 26 25 25 25
25 24 22 21 20 20 20 20 20 20 19 19 18 17 17 17 15 14 11 10 11 10 13 9 9 9 9 11 10 12 11 10 10 11 12 13 14 16 18 20 20 24 23 23 23 23 25
26 24 23 22 21 21 21 21 21 21 21 20 18 17 17 16 15 13 11 11 12 11 11 10 10 11 11 12 12 12 12 13 13 13 14 15 16 17 19 19 20 23 23 23 23 25 25
28 26 25 24 23 22 22 21 21 21 21 20 19 18 17 16 15 13 12 12 13 11 13 13 12 11 12 12 13 13 14 14 14 14 14 15 19 18 21 20 21 23 22 20 23 25 29
29 27 26 25 23 22 22 21 21 21 21 20 18 19 19 19 16 15 14 14 16 14 13 12 13 14 13 13 13 14 15 16 15 15 15 16 17 19 20 21 22 22 22 23 22 27 28
30 28 26 26 24 23 22 22 20 21 21 20 20 20 20 19 16 16 16 19 17 16 15 15 15 15 15 15 14 15 16 16 16 17 17 18 19 21 20 22 23 21 21 22 24 23 27
32 30 28 26 26 25 23 22 22 22 20 18 19 20 20 17 17 18 19 20 18 18 17 16 16 16 17 16 16 17 17 19 19 18 18 19 20 21 21 23 22 22 23 23 22 23 23
32 32 30 29 26 25 24 24 24 23 22 22 21 20 18 19 19 19 20 19 19 19 18 18 17 17 17 17 17 19 19 20 18 18 19 20 20 21 22 23 24 23 22 22 22 24 23
31 29 30 28 27 26 25 24 24 24 23 22 21 21 21 21 21 21 21 21 21 20 20 19 18 18 18 18 18 19 19 20 19 20 19 20 22 22 24 25 24 24 23 22 22 23 23
30 30 29 30 27 26 25 24 23 23 22 22 20 22 21 21 22 22 21 22 21 21 20 20 19 19 18 19 20 20 20 21 21 22 21 21 23 22 23 24 22 23 23 23 22 22 23
30 30 30 29 29 28 28 26 24 24 22 21 21 22 21 21 21 21 21 20 19 21 21 21 21 22 20 20 21 22 22 22 22 22 22 22 25 24 26 27 26 26 24 23 25 24 23
29 31 32 31 29 29 29 28 26 24 22 21 20 19 20 22 23 22 23 23 23 21 21 23 24 22 22 21 23 22 21 23 23 23 23 25 25 25 27 27 27 29 27 27 28 25 29
27 31 33 34 33 31 28 28 27 27 26 24 24 24 23 23 23 22 24 24 23 20 23 22 22 21 22 23 22 23 22 23 23 22 23 24 23 24 28 26 28 30 28 26 24 24 22
25 30 32 33 33 32 30 29 28 27 27 26 25 25 25 26 25 25 24 23 23 23 22 22 21 21 21 18 18 20 22 21 23 24 24 23 23 24 26 26 26 28 24 23 26 24 25
25 27 31 32 33 32 32 31 30 30 29 29 28 26 24 25 24 24 24 23 22 22 21 21 22 22 19 21 22 23 25 25 25 26 25 25 23 24 24 26 31 29 26 23 22 27 25
26 26 30 31 32 32 32 30 31 32 29 29 27 27 26 25 26 24 23 24 23 22 21 21 21 19 22 23 23 23 24 23 23 23 24 24 24 25 24 25 27 26 24 22 22 27 23
26 27 28 30 30 30 30 29 29 29 31 29 28 28 26 26 26 25 24 23 23 23 22 21 21 23 24 24 24 24 26 25 25 24 23 23 25 26 26 27 31 27 24 21 19 24 22
27 26 26 26 27 27 26 26 26 27 27 28 29 28 26 26 26 25 24 23 24 24 24 22 21 24 24 25 25 25 25 26 26 25 24 23 22 25 24 25 30 23 21 22 23 25 25
26 23 22 25 26 26 26 25 25 24 25 25 24 25 26 25 24 25 25 25 25 25 24 24 24 23 23 23 25 24 25 25 25 27 26 27 26 25 25 25 25 24 23 25 25 26 26
Wind_Direction
335 339 341 342 345 347 348 349 350 352 353 352 354 354 354 353 352 354 357 2 7 18 24 354 329 313 308 325 317 316 316 311 293 274 271 258 261 259 255 263 265 271 272 290 283 291 289
325 329 332 333 334 338 341 343 345 348 349 349 350 350 350 352 351 352 357 359 8 12 22 20 351 328 318 324 318 325 317 317 316 286 277 278 263 262 273 276 280 275 283 285 297 293 292
314 319 322 323 326 330 334 338 340 340 343 344 345 346 348 349 350 351 354 3 12 10 349 346 332 347 11 336 334 335 329 314 316 306 290 291 280 283 279 283 288 278 284 294 305 299 293
305 310 313 313 316 320 325 329 333 337 337 338 338 341 342 345 347 346 347 344 341 338 335 336 345 338 338 336 342 346 335 338 327 321 319 308 298 299 297 289 300 296 295 294 298 303 295
297 302 305 305 306 311 316 321 326 329 331 332 334 333 335 337 339 341 340 342 343 346 345 332 327 329 325 329 332 335 331 313 320 340 341 323 310 307 306 299 301 307 297 301 300 303 301
291 296 298 298 299 304 308 313 319 324 326 328 328 328 327 328 328 329 334 337 347 326 329 332 339 333 328 325 330 332 317 317 318 311 320 324 319 315 319 308 294 298 300 300 297 304 307
285 290 292 294 294 297 301 306 314 319 322 324 323 325 323 320 318 315 315 316 319 322 345 336 326 332 324 319 335 335 317 308 313 322 314 323 327 322 318 319 307 305 303 299 301 302 305
280 284 287 290 290 292 295 300 308 313 316 319 320 323 321 314 318 306 303 306 307 297 320 325 319 327 326 316 327 341 326 312 314 315 315 322 317 304 318 316 309 306 306 303 304 302 304
276 278 282 286 286 287 290 293 302 308 312 313 315 317 318 309 311 311 301 295 297 298 307 300 304 309 304 328 323 324 326 319 330 319 313 307 299 301 315 318 313 309 307 305 302 307 307
270 274 277 280 282 284 285 289 296 302 307 309 309 311 311 308 306 305 303 290 288 298 304 296 294 300 302 302 314 322 316 305 310 308 316 316 306 305 309 313 310 306 305 307 307 311 308
267 271 274 277 278 278 282 286 291 297 302 304 302 305 309 305 299 300 293 283 286 299 305 299 292 289 309 308 297 315 315 315 307 302 302 299 303 308 311 312 311 307 310 308 308 307 311
264 269 271 272 275 276 278 283 288 293 296 299 298 298 298 300 301 295 282 276 290 299 282 284 285 289 300 312 307 305 310 315 309 321 321 306 306 312 310 312 312 313 315 316 315 314 314
262 264 266 270 273 274 277 281 284 289 291 295 292 294 297 296 292 285 273 277 292 275 291 278 279 287 294 300 305 308 307 308 302 309 306 307 308 309 315 313 313 319 319 316 315 316 311
258 262 264 267 270 272 273 279 280 286 290 291 286 287 293 295 287 277 270 280 275 278 273 280 281 284 286 290 295 298 300 301 308 306 305 302 303 307 314 315 312 317 316 314 307 311 312
257 259 261 264 267 270 271 274 278 283 290 290 283 286 285 288 279 270 273 274 273 272 269 268 280 279 279 282 286 293 296 293 297 301 301 304 306 309 314 315 315 314 317 313 316 311 313
253 255 258 261 263 266 269 271 275 282 288 286 283 285 286 280 271 270 272 272 273 273 270 272 266 272 270 276 282 286 289 292 294 300 301 298 308 304 304 310 319 313 311 315 317 314 311
249 252 256 260 260 263 266 267 272 278 285 283 286 287 284 270 271 275 271 271 272 270 269 268 267 272 275 275 277 283 287 295 291 298 303 302 306 304 306 311 308 310 311 316 313 311 307
251 250 254 256 261 260 264 266 269 274 277 282 284 284 283 269 274 274 273 271 270 265 267 269 271 274 270 274 282 282 282 291 287 292 297 298 301 303 305 306 307 307 303 305 309 306 307
247 249 252 250 256 257 261 266 269 270 274 279 278 278 280 274 271 272 276 274 269 264 264 264 269 272 276 273 284 284 287 292 286 290 293 293 301 307 308 307 304 301 300 304 306 308 299
246 248 248 251 255 256 259 265 269 267 273 276 279 282 277 273 276 273 272 273 268 268 265 266 269 271 274 278 283 283 288 289 288 289 291 296 298 294 295 300 304 300 298 296 300 303 301
249 247 249 252 253 254 259 260 264 269 271 271 281 279 275 277 276 274 272 273 269 267 268 265 271 267 268 278 282 281 284 287 290 288 293 292 293 296 297 299 300 297 296 287 287 292 292
252 250 250 251 253 255 258 257 261 265 264 272 277 281 281 277 276 276 270 272 268 270 265 270 268 266 268 274 276 279 282 283 285 287 288 293 296 299 299 299 297 296 293 289 285 290 290
262 254 252 251 252 254 256 255 260 262 260 269 271 277 279 279 279 275 274 272 272 270 273 276 269 270 271 276 281 286 286 289 287 285 284 290 293 298 296 301 302 300 288 278 287 289 287
277 258 254 251 252 249 253 256 257 261 259 266 271 275 278 281 276 274 276 276 273 271 274 276 272 272 275 272 281 289 294 293 292 292 288 289 293 295 295 302 300 299 300 294 283 290 280
280 265 255 252 250 251 254 254 256 259 263 266 267 273 278 279 279 278 276 275 276 278 275 276 277 275 259 277 286 291 292 293 291 291 290 290 289 294 294 293 299 300 293 288 286 292 277
284 277 258 253 252 252 251 254 256 254 263 263 268 269 275 276 279 281 278 273 272 273 276 277 279 259 273 280 283 285 284 288 291 294 292 291 291 289 293 292 292 300 297 291 292 297 287
290 278 264 254 252 250 251 253 256 258 260 260 266 268 270 275 279 278 278 275 272 274 276 274 269 272 275 281 283 285 285 289 286 286 289 290 291 285 287 289 294 294 290 288 292 291 297
296 284 267 255 248 246 247 252 258 259 260 260 265 264 267 274 280 278 280 278 276 273 273 272 274 275 277 277 282 285 285 284 289 290 289 287 287 291 292 290 291 289 286 278 288 295 293
298 287 270 255 245 244 249 251 258 260 261 263 265 262 266 272 278 280 279 279 277 275 272 264 277 279 273 280 283 287 287 290 290 292 291 289 287 292 283 289 293 284 289 282 287 291 293